TimeEDT,TemperatureF,Dew PointF,Humidity,Sea Level PressureIn,VisibilityMPH,Wind Direction,Wind SpeedMPH,Gust SpeedMPH,PrecipitationIn,Events,Conditions,WindDirDegrees,DateUTC
12:54 AM,26.1,12.0,55,30.02,10.0,NW,9.2,-,N/A,,Clear,310,2013-03-15 04:54:00
2:54 AM,26.1,12.0,55,30.00,10.0,WNW,5.8,-,N/A,,Clear,300,2013-03-15 06:54:00
3:54 AM,25.0,12.9,60,29.97,10.0,West,3.5,-,N/A,,Mostly Cloudy,280,2013-03-15 07:54:00
4:54 AM,26.1,15.1,63,29.94,10.0,SSW,5.8,-,N/A,,Overcast,200,2013-03-15 08:54:00
5:54 AM,25.0,15.1,66,29.91,10.0,South,5.8,-,N/A,,Mostly Cloudy,190,2013-03-15 09:54:00
6:54 AM,25.0,14.0,63,29.88,10.0,South,6.9,-,N/A,,Mostly Cloudy,190,2013-03-15 10:54:00
7:54 AM,24.1,15.1,69,29.85,10.0,South,6.9,-,N/A,,Partly Cloudy,180,2013-03-15 11:54:00
8:54 AM,27.0,17.1,66,29.82,10.0,South,8.1,-,N/A,,Overcast,170,2013-03-15 12:54:00
9:54 AM,30.0,19.0,64,29.79,10.0,SSW,6.9,-,N/A,,Overcast,200,2013-03-15 13:54:00
10:36 AM,30.2,23.0,75,29.75,1.8,SW,10.4,-,0.00,Snow,Light Snow,220,2013-03-15 14:36:00
10:46 AM,30.2,24.8,80,29.75,1.8,SW,6.9,-,0.00,Snow,Light Snow,220,2013-03-15 14:46:00
10:54 AM,30.0,25.0,82,29.76,1.8,SW,5.8,-,0.00,Snow,Light Snow,220,2013-03-15 14:54:00
11:14 AM,30.2,26.6,86,29.74,0.8,SW,8.1,-,0.00,Snow,Light Snow,230,2013-03-15 15:14:00
11:25 AM,30.2,26.6,86,29.73,1.2,SSW,5.8,-,0.00,Snow,Light Snow,210,2013-03-15 15:25:00
11:41 AM,30.2,26.6,86,29.73,2.5,SW,6.9,-,0.00,Snow,Light Snow,220,2013-03-15 15:41:00
11:50 AM,30.2,26.6,86,29.73,1.8,SSW,8.1,-,0.01,Snow,Light Snow,200,2013-03-15 15:50:00
11:52 AM,30.2,26.6,86,29.73,2.0,SSW,6.9,-,0.01,Snow,Light Snow,210,2013-03-15 15:52:00
11:54 AM,30.9,26.1,82,29.75,2.0,SW,6.9,-,0.01,Snow,Light Snow,220,2013-03-15 15:54:00
12:01 PM,30.2,26.6,86,29.73,1.8,SW,10.4,-,0.00,Snow,Light Snow,230,2013-03-15 16:01:00
12:12 PM,32.0,28.4,87,29.73,2.5,West,11.5,-,0.00,Snow,Light Snow,270,2013-03-15 16:12:00
12:29 PM,33.8,28.4,81,29.72,1.5,West,15.0,26.5,0.00,Snow,Light Snow,270,2013-03-15 16:29:00
12:54 PM,33.1,28.0,82,29.73,1.8,West,15.0,21.9,0.00,Snow,Light Snow,260,2013-03-15 16:54:00
1:20 PM,33.8,28.4,81,29.70,2.0,West,12.7,27.6,0.00,Snow,Light Snow,270,2013-03-15 17:20:00
1:54 PM,34.0,28.9,82,29.70,1.5,West,15.0,25.3,0.00,Snow,Light Snow,260,2013-03-15 17:54:00
2:27 PM,35.6,28.4,75,29.68,2.0,West,18.4,28.8,0.00,Snow,Light Snow,270,2013-03-15 18:27:00
2:41 PM,35.6,28.4,75,29.67,6.0,West,15.0,-,0.00,Snow,Light Snow,260,2013-03-15 18:41:00
2:54 PM,36.0,28.0,73,29.69,7.0,West,17.3,21.9,0.00,Snow,Light Snow,270,2013-03-15 18:54:00
3:27 PM,35.6,26.6,70,29.67,10.0,West,16.1,27.6,0.00,,Overcast,280,2013-03-15 19:27:00
3:54 PM,37.0,27.0,67,29.68,8.0,West,21.9,32.2,0.00,Snow,Light Snow,260,2013-03-15 19:54:00
4:54 PM,37.0,28.0,70,29.69,10.0,West,24.2,34.5,0.00,,Overcast,270,2013-03-15 20:54:00
5:13 PM,35.6,28.4,75,29.67,4.0,WNW,13.8,-,0.00,Snow,Light Snow,290,2013-03-15 21:13:00
5:46 PM,37.4,26.6,65,29.68,6.0,West,23.0,33.4,0.00,Snow,Light Snow,270,2013-03-15 21:46:00
5:54 PM,36.0,28.0,73,29.70,7.0,WNW,16.1,31.1,0.00,Snow,Light Snow,290,2013-03-15 21:54:00
6:11 PM,35.6,26.6,70,29.69,10.0,WNW,17.3,25.3,0.00,,Mostly Cloudy,290,2013-03-15 22:11:00
6:54 PM,36.0,21.9,57,29.72,10.0,WNW,19.6,28.8,0.00,,Mostly Cloudy,290,2013-03-15 22:54:00
7:54 PM,35.1,23.0,61,29.76,10.0,WNW,18.4,25.3,N/A,,Overcast,290,2013-03-15 23:54:00
8:54 PM,33.1,21.0,61,29.78,10.0,WNW,17.3,25.3,N/A,,Scattered Clouds,300,2013-03-16 00:54:00
9:54 PM,32.0,19.9,61,29.81,10.0,NW,13.8,26.5,N/A,,Partly Cloudy,310,2013-03-16 01:54:00
10:54 PM,30.9,19.9,64,29.83,10.0,WNW,11.5,-,N/A,,Clear,300,2013-03-16 02:54:00
11:54 PM,30.0,18.0,61,29.85,10.0,NW,9.2,-,N/A,,Scattered Clouds,320,2013-03-16 03:54:00